CW2750 Weather Reports


time (UTC)temp
C
wind
direction
speed
KPH
gust
KPH
rain 1hr
cm
rain 24hr
cm
rain mn
cm
humidity
%
barometer
mb
20260507052750 14 302 0.0 0.0 0.00 0.00 0.00 78 1018.9
20260507052247 14 302 0.0 0.0 0.00 0.00 0.00 77 1018.9
20260507051748 14 302 0.0 0.0 0.00 0.00 0.00 77 1018.9
20260507051247 15 302 0.0 0.0 0.00 0.00 0.00 77 1018.9
20260507050745 15 302 0.0 0.0 0.00 0.00 0.00 77 1018.9
20260507050508 15 302 0.0 1.6 0.00 0.00 0.00 76 1018.9
20260507045733 15 302 0.0 1.6 0.00 0.00 0.00 76 1018.9
20260507045229 15 301 0.0 1.6 0.00 0.00 0.00 76 1018.9
20260507044725 15 301 0.0 0.0 0.00 0.00 0.00 75 1018.9
20260507044218 15 301 0.0 9.7 0.00 0.00 0.00 74 1018.9
20260507043720 15 301 0.0 9.7 0.00 0.00 0.00 74 1018.8
20260507043219 15 296 0.0 4.8 0.00 0.00 0.00 73 1018.8
20260507042722 15 318 0.0 8.0 0.00 0.00 0.00 72 1018.8
20260507042451 15 308 0.0 8.0 0.00 0.00 0.00 72 1018.6
20260507041712 16 304 0.0 8.0 0.00 0.00 0.00 71 1018.6
20260507041203 16 258 0.0 0.0 0.00 0.00 0.00 71 1018.6
20260507040706 16 309 1.6 9.7 0.00 0.00 0.00 70 1018.4
20260507040150 16 299 1.6 9.7 0.00 0.00 0.00 70 1018.4
20260507035644 16 335 0.0 4.8 0.00 0.00 0.00 68 1018.4
20260507035145 16 323 0.0 3.2 0.00 0.00 0.00 68 1018.2
20260507034642 16 323 0.0 3.2 0.00 0.00 0.00 68 1018.2
20260507034145 17 311 0.0 3.2 0.00 0.00 0.00 67 1018.2
20260507033413 17 313 1.6 11.3 0.00 0.00 0.00 65 1017.9
20260507032641 17 320 1.6 11.3 0.00 0.00 0.00 65 1017.9
20260507032142 17 285 1.6 11.3 0.00 0.00 0.00 64 1017.6
20260507031641 17 306 1.6 11.3 0.00 0.00 0.00 63 1017.6
20260507031409 17 304 1.6 11.3 0.00 0.00 0.00 62 1017.6
20260507030638 18 319 0.0 11.3 0.00 0.00 0.00 62 1017.4
20260507030150 18 318 0.0 4.8 0.00 0.00 0.00 62 1017.4
20260507025637 18 322 0.0 4.8 0.00 0.00 0.00 61 1017.4
20260507025410 18 346 0.0 8.0 0.00 0.00 0.00 60 1017.2
20260507024640 18 313 0.0 8.0 0.00 0.00 0.00 60 1017.2
20260507024138 18 339 0.0 1.6 0.00 0.00 0.00 60 1017.2
20260507023653 18 311 0.0 6.4 0.00 0.00 0.00 59 1017.3
20260507023138 19 304 0.0 8.0 0.00 0.00 0.00 59 1017.3
20260507022635 19 304 1.6 9.7 0.00 0.00 0.00 58 1017.3
20260507022136 19 315 1.6 9.7 0.00 0.00 0.00 58 1017.0
20260507021634 20 309 1.6 12.9 0.00 0.00 0.00 58 1017.0
20260507021406 20 299 0.0 12.9 0.00 0.00 0.00 57 1017.0
20260507020636 20 14 0.0 11.3 0.00 0.00 0.00 56 1017.0
20260507020136 20 301 1.6 11.3 0.00 0.00 0.00 55 1017.0
20260507015636 20 295 0.0 9.7 0.00 0.00 0.00 54 1017.0
20260507015136 21 287 0.0 6.4 0.00 0.00 0.00 54 1017.0
20260507014907 21 288 0.0 6.4 0.00 0.00 0.00 53 1017.0
20260507014134 21 296 0.0 4.8 0.00 0.00 0.00 53 1017.0
20260507013635 21 292 1.6 12.9 0.00 0.00 0.00 52 1016.9
20260507013138 21 296 1.6 12.9 0.00 0.00 0.00 51 1016.9
20260507012634 21 294 1.6 16.1 0.00 0.00 0.00 51 1016.9
20260507012406 21 285 1.6 16.1 0.00 0.00 0.00 51 1016.9
20260507011633 21 342 1.6 9.7 0.00 0.00 0.00 50 1016.9
20260507011133 22 284 1.6 11.3 0.00 0.00 0.00 50 1016.9
20260507010645 22 305 1.6 12.9 0.00 0.00 0.00 49 1016.8
20260507010131 22 288 1.6 16.1 0.00 0.00 0.00 47 1016.8
20260507005634 22 0 1.6 16.1 0.00 0.00 0.00 48 1016.8
20260507005404 22 14 1.6 17.7 0.00 0.00 0.00 47 1016.8
20260507004628 22 312 1.6 17.7 0.00 0.00 0.00 47 1016.8
20260507003124 23 306 3.2 12.9 0.00 0.00 0.00 47 1016.6
20260507002627 23 295 3.2 12.9 0.00 0.00 0.00 46 1016.7
20260507002128 23 308 1.6 12.9 0.00 0.00 0.00 44 1016.7
20260507001628 23 318 1.6 12.9 0.00 0.00 0.00 44 1016.7
20260507001128 24 320 1.6 9.7 0.00 0.00 0.00 45 1016.7
20260507000626 23 337 1.6 9.7 0.00 0.00 0.00 44 1016.5
20260506235625 24 309 1.6 9.7 0.00 0.00 0.00 43 1016.5
20260506235125 25 343 1.6 11.3 0.00 0.00 0.00 42 1016.6
20260506234623 25 315 1.6 11.3 0.00 0.00 0.00 43 1016.6
20260506234123 25 318 0.0 11.3 0.00 0.00 0.00 43 1016.6
20260506233621 25 292 1.6 11.3 0.00 0.00 0.00 42 1016.7
20260506233122 24 333 1.6 11.3 0.00 0.00 0.00 43 1016.7
20260506232621 24 326 3.2 16.1 0.00 0.00 0.00 43 1016.7
20260506232124 24 312 3.2 16.1 0.00 0.00 0.00 43 1016.8
20260506231623 25 17 1.6 11.3 0.00 0.00 0.00 42 1016.8
20260506231121 25 302 1.6 11.3 0.00 0.00 0.00 42 1016.8
20260506230623 25 356 0.0 12.9 0.00 0.00 0.00 41 1016.9
20260506230352 25 44 0.0 12.9 0.00 0.00 0.00 42 1016.9
20260506225855 25 35 1.6 11.3 0.00 0.00 0.00 42 1016.9
20260506225121 25 328 1.6 12.9 0.00 0.00 0.00 42 1016.9
20260506224620 25 312 1.6 12.9 0.00 0.00 0.00 41 1016.9
20260506224353 25 35 1.6 11.3 0.00 0.00 0.00 40 1016.9
20260506223619 25 336 0.0 6.4 0.00 0.00 0.00 41 1017.1
20260506223119 25 350 1.6 11.3 0.00 0.00 0.00 42 1017.1
20260506222619 24 313 1.6 11.3 0.00 0.00 0.00 43 1017.1
20260506222123 24 308 1.6 12.9 0.00 0.00 0.00 42 1017.3
20260506221620 24 305 1.6 12.9 0.00 0.00 0.00 42 1017.3
20260506221348 25 329 0.0 1.6 0.00 0.00 0.00 42 1017.3
20260506220621 24 40 0.0 12.9 0.00 0.00 0.00 43 1017.5
20260506220119 25 186 1.6 12.9 0.00 0.00 0.00 42 1017.5
20260506215852 24 305 0.0 8.0 0.00 0.00 0.00 41 1017.5
20260506215115 24 325 0.0 9.7 0.00 0.00 0.00 43 1017.7
20260506214846 23 320 0.0 9.7 0.00 0.00 0.00 43 1017.7
20260506214112 24 294 0.0 9.7 0.00 0.00 0.00 43 1017.7
20260506213611 24 359 0.0 9.7 0.00 0.00 0.00 45 1018.0
20260506213112 23 305 0.0 11.3 0.00 0.00 0.00 43 1018.0
20260506212613 23 308 0.0 11.3 0.00 0.00 0.00 45 1018.0
20260506212110 23 295 0.0 8.0 0.00 0.00 0.00 43 1018.0
20260506211610 23 333 0.0 8.0 0.00 0.00 0.00 43 1018.0
20260506211112 23 335 1.6 14.5 0.00 0.00 0.00 44 1017.9
20260506210613 23 336 1.6 14.5 0.00 0.00 0.00 44 1018.0
20260506210110 23 320 1.6 12.9 0.00 0.00 0.00 46 1018.0
20260506205609 23 295 1.6 12.9 0.00 0.00 0.00 43 1018.0
20260506205112 23 263 1.6 12.9 0.00 0.00 0.00 44 1018.3
20260506204611 23 199 0.0 11.3 0.00 0.00 0.00 43 1018.3
20260506204109 23 3 0.0 4.8 0.00 0.00 0.00 46 1018.4
20260506203607 23 340 0.0 4.8 0.00 0.00 0.00 45 1018.5
20260506203337 22 282 0.0 9.7 0.00 0.00 0.00 48 1018.5
20260506202608 23 281 0.0 9.7 0.00 0.00 0.00 45 1018.5
20260506202337 22 313 0.0 8.0 0.00 0.00 0.00 45 1018.6
20260506201605 23 14 0.0 8.0 0.00 0.00 0.00 46 1018.6
20260506201106 22 356 0.0 8.0 0.00 0.00 0.00 47 1018.6
20260506200606 21 41 0.0 3.2 0.00 0.00 0.00 49 1018.7
20260506200105 22 326 0.0 11.3 0.00 0.00 0.00 46 1018.7
20260506195605 22 302 0.0 11.3 0.00 0.00 0.00 46 1018.7
20260506195105 22 322 1.6 9.7 0.00 0.00 0.00 50 1018.9
20260506194603 21 294 1.6 9.7 0.00 0.00 0.00 48 1018.9
20260506194101 22 304 0.0 8.0 0.00 0.00 0.00 47 1018.9
20260506193600 22 301 0.0 8.0 0.00 0.00 0.00 50 1019.2
20260506193102 21 335 0.0 4.8 0.00 0.00 0.00 49 1019.2
20260506192600 21 344 0.0 9.7 0.00 0.00 0.00 50 1019.2
20260506192330 21 359 0.0 9.7 0.00 0.00 0.00 50 1019.3
20260506191832 21 319 0.0 8.0 0.00 0.00 0.00 50 1019.3
20260506191100 21 316 0.0 8.0 0.00 0.00 0.00 49 1019.3
20260506190558 21 322 0.0 8.0 0.00 0.00 0.00 50 1019.4
20260506190113 21 306 0.0 8.0 0.00 0.00 0.00 50 1019.4
20260506185601 21 0 0.0 0.0 0.00 0.00 0.00 50 1019.4
20260506185101 21 0 0.0 1.6 0.00 0.00 0.00 53 1019.5
20260506184828 20 347 0.0 4.8 0.00 0.00 0.00 53 1019.5
20260506184045 20 0 0.0 4.8 0.00 0.00 0.00 54 1019.5
20260506183544 20 318 0.0 1.6 0.00 0.00 0.00 53 1019.6
20260506183043 20 313 0.0 8.0 0.00 0.00 0.00 55 1019.6
20260506182544 20 315 0.0 8.0 0.00 0.00 0.00 55 1019.6
20260506182046 20 16 0.0 3.2 0.00 0.00 0.00 54 1019.6
20260506181535 20 148 0.0 6.4 0.00 0.00 0.00 54 1019.6
20260506181030 20 329 0.0 8.0 0.00 0.00 0.00 54 1019.6
20260506180814 20 295 0.0 8.0 0.00 0.00 0.00 55 1019.6
20260506175803 18 298 0.0 9.7 0.00 0.00 0.00 56 1019.5
20260506175031 19 337 0.0 1.6 0.00 0.00 0.00 54 1019.6
20260506174531 19 342 0.0 1.6 0.00 0.00 0.00 56 1019.6
20260506174303 18 343 0.0 1.6 0.00 0.00 0.00 56 1019.6
20260506173532 18 18 0.0 0.0 0.00 0.00 0.00 57 1019.7
20260506173031 18 320 0.0 3.2 0.00 0.00 0.00 57 1019.7
20260506172802 18 319 0.0 4.8 0.00 0.00 0.00 57 1019.7
20260506172034 18 337 0.0 4.8 0.00 0.00 0.00 59 1019.7
20260506171524 18 342 0.0 8.0 0.00 0.00 0.00 58 1019.7
20260506170748 18 0 0.0 0.0 0.00 0.00 0.00 59 1019.8
20260506170019 18 0 0.0 11.3 0.00 0.00 0.00 58 1019.8
20260506165520 18 318 0.0 11.3 0.00 0.00 0.00 58 1019.8
20260506165248 18 285 1.6 9.7 0.00 0.00 0.00 61 1019.8
20260506164515 18 306 0.0 9.7 0.00 0.00 0.00 60 1019.8
20260506164016 18 312 0.0 1.6 0.00 0.00 0.00 60 1019.8
20260506163515 17 313 0.0 1.6 0.00 0.00 0.00 62 1019.8
20260506163017 17 313 0.0 11.3 0.00 0.00 0.00 62 1019.8
20260506162239 17 322 0.0 1.6 0.00 0.00 0.00 64 1019.9
20260506161510 17 319 0.0 1.6 0.00 0.00 0.00 66 1019.9
20260506161008 16 0 0.0 1.6 0.00 0.00 0.00 68 1019.9
20260506160233 15 0 0.0 1.6 0.00 0.00 0.00 68 1019.9
20260506155503 15 0 0.0 1.6 0.00 0.00 0.00 68 1019.9
20260506155002 15 0 0.0 0.0 0.00 0.00 0.00 69 1019.9
20260506154504 15 0 0.0 0.0 0.00 0.00 0.00 69 1019.9
20260506154003 15 0 0.0 0.0 0.00 0.00 0.00 70 1019.9
20260506153503 15 0 0.0 0.0 0.00 0.00 0.00 70 1019.9
20260506152959 15 0 0.0 0.0 0.00 0.00 0.00 70 1019.8
20260506152454 15 0 0.0 0.0 0.00 0.00 0.00 71 1019.8
20260506151951 15 0 0.0 3.2 0.00 0.00 0.00 71 1019.8
20260506150950 15 0 0.0 0.0 0.00 0.00 0.00 71 1019.8
20260506150447 15 0 0.0 4.8 0.00 0.00 0.00 72 1019.8
20260506145950 15 0 0.0 4.8 0.00 0.00 0.00 72 1019.8
20260506145450 15 3 0.0 0.0 0.00 0.00 0.00 73 1019.8
20260506144949 14 3 0.0 0.0 0.00 0.00 0.00 73 1019.9
20260506144450 14 3 0.0 0.0 0.00 0.00 0.00 73 1019.9
20260506143948 14 3 0.0 0.0 0.00 0.00 0.00 73 1019.9
20260506143449 14 3 0.0 0.0 0.00 0.00 0.00 73 1019.8
20260506142949 14 3 0.0 0.0 0.00 0.00 0.00 73 1019.8
20260506142723 14 3 0.0 0.0 0.00 0.00 0.00 74 1019.8
20260506141935 14 3 0.0 0.0 0.00 0.00 0.00 74 1019.6
20260506141434 14 3 0.0 0.0 0.00 0.00 0.00 74 1019.6
20260506141208 14 3 0.0 0.0 0.00 0.00 0.00 74 1019.6
20260506140433 14 3 0.0 0.0 0.00 0.00 0.00 74 1019.4
20260506135934 13 3 0.0 0.0 0.00 0.00 0.00 74 1019.4
20260506134935 13 3 0.0 1.6 0.00 0.00 0.00 74 1019.2
20260506134435 13 3 0.0 0.0 0.00 0.00 0.00 74 1019.2
20260506133927 13 7 0.0 0.0 0.00 0.00 0.00 75 1019.2
20260506133424 13 7 0.0 0.0 0.00 0.00 0.00 75 1019.0
20260506132922 13 7 0.0 0.0 0.00 0.00 0.00 75 1019.0
20260506132420 13 7 0.0 0.0 0.00 0.00 0.00 75 1019.0
20260506131922 13 16 0.0 0.0 0.00 0.00 0.00 75 1018.9
20260506131652 13 312 0.0 0.0 0.00 0.00 0.00 75 1018.9
20260506130924 13 312 0.0 0.0 0.00 0.00 0.00 75 1018.9
20260506130420 13 312 0.0 0.0 0.00 0.00 0.00 75 1018.8
20260506125922 13 312 0.0 0.0 0.00 0.00 0.00 75 1018.8
20260506125421 13 316 0.0 0.0 0.00 0.00 0.00 74 1018.8
20260506124921 13 316 0.0 0.0 0.00 0.00 0.00 74 1018.8
20260506124653 13 316 0.0 0.0 0.00 0.00 0.00 74 1018.8
20260506123908 13 316 0.0 0.0 0.00 0.00 0.00 74 1018.8
20260506123405 13 316 0.0 0.0 0.00 0.00 0.00 74 1018.8
20260506122851 13 316 0.0 0.0 0.00 0.00 0.00 74 1018.8
20260506122351 13 316 0.0 0.0 0.00 0.00 0.00 74 1018.8
20260506121852 13 316 0.0 0.0 0.00 0.00 0.00 74 1018.7
20260506121351 13 316 0.0 0.0 0.00 0.00 0.00 74 1018.7
20260506120850 13 316 0.0 0.0 0.00 0.00 0.00 74 1018.7
20260506120352 13 316 0.0 0.0 0.00 0.00 0.00 74 1018.5
20260506115852 13 316 0.0 0.0 0.00 0.00 0.00 74 1018.5
20260506114837 13 316 0.0 0.0 0.00 0.00 0.00 74 1018.4
20260506114336 13 316 0.0 0.0 0.00 0.00 0.00 75 1018.4
20260506113836 13 316 0.0 0.0 0.00 0.00 0.00 75 1018.4
20260506113337 13 316 0.0 0.0 0.00 0.00 0.00 75 1018.3
20260506112837 13 316 0.0 0.0 0.00 0.00 0.00 75 1018.3
20260506112338 13 316 0.0 0.0 0.00 0.00 0.00 75 1018.3
20260506111838 13 316 0.0 0.0 0.00 0.00 0.00 75 1018.3
20260506111612 13 316 0.0 0.0 0.00 0.00 0.00 75 1018.3
20260506110839 13 315 0.0 0.0 0.00 0.00 0.00 76 1018.3
20260506110608 13 315 0.0 0.0 0.00 0.00 0.00 76 1018.3
20260506105837 13 315 0.0 0.0 0.00 0.00 0.00 77 1018.3
20260506105608 13 315 0.0 0.0 0.00 0.00 0.00 76 1018.3
20260506105107 13 315 0.0 0.0 0.00 0.00 0.00 76 1018.2
20260506104330 13 315 0.0 0.0 0.00 0.00 0.00 76 1018.2
20260506103824 14 315 0.0 0.0 0.00 0.00 0.00 76 1018.2
20260506103324 14 315 0.0 0.0 0.00 0.00 0.00 76 1018.1
20260506102822 14 315 0.0 0.0 0.00 0.00 0.00 75 1018.1
20260506102324 14 315 0.0 0.0 0.00 0.00 0.00 75 1018.1
20260506101822 14 315 0.0 0.0 0.00 0.00 0.00 75 1018.2
20260506101324 14 315 0.0 0.0 0.00 0.00 0.00 75 1018.2
20260506100822 14 315 0.0 0.0 0.00 0.00 0.00 75 1018.2
20260506100325 14 315 0.0 0.0 0.00 0.00 0.00 74 1018.2
20260506095821 14 315 0.0 0.0 0.00 0.00 0.00 74 1018.2
20260506095310 14 315 0.0 0.0 0.00 0.00 0.00 74 1018.2
20260506094811 14 315 0.0 0.0 0.00 0.00 0.00 74 1018.2
20260506094310 14 315 0.0 0.0 0.00 0.00 0.00 74 1018.2
20260506093807 14 315 0.0 0.0 0.00 0.00 0.00 73 1018.2
20260506093309 14 315 0.0 0.0 0.00 0.00 0.00 73 1018.2
20260506092810 14 315 0.0 0.0 0.00 0.00 0.00 73 1018.2
20260506092542 14 315 0.0 0.0 0.00 0.00 0.00 73 1018.2
20260506091810 14 315 0.0 0.0 0.00 0.00 0.00 73 1018.3
20260506091255 14 315 0.0 0.0 0.00 0.00 0.00 73 1018.3
20260506090750 14 315 0.0 0.0 0.00 0.00 0.00 73 1018.3
20260506090240 14 312 0.0 0.0 0.00 0.00 0.00 73 1018.3
20260506085739 14 315 0.0 0.0 0.00 0.00 0.00 73 1018.3
20260506085239 14 315 0.0 0.0 0.00 0.00 0.00 73 1018.3
20260506084739 14 315 0.0 0.0 0.00 0.00 0.00 73 1018.2
20260506083739 14 315 0.0 0.0 0.00 0.00 0.00 73 1018.2
20260506083240 14 316 0.0 0.0 0.00 0.00 0.00 73 1018.3
20260506083010 14 315 0.0 0.0 0.00 0.00 0.00 73 1018.3
20260506082239 14 315 0.0 0.0 0.00 0.00 0.00 73 1018.3
20260506081727 14 315 0.0 0.0 0.00 0.00 0.00 73 1018.2
20260506081226 14 315 0.0 0.0 0.00 0.00 0.00 73 1018.2
20260506080722 14 315 0.0 3.2 0.00 0.00 0.00 72 1018.2
20260506080212 14 316 0.0 3.2 0.00 0.00 0.00 72 1018.2
20260506073211 14 312 0.0 0.0 0.00 0.00 0.00 72 1018.0
20260506072711 14 312 0.0 4.8 0.00 0.00 0.00 72 1018.0
20260506072202 14 312 0.0 4.8 0.00 0.00 0.00 72 1017.8
20260506071659 14 313 0.0 1.6 0.00 0.00 0.00 72 1017.8
20260506071157 14 313 0.0 0.0 0.00 0.00 0.00 72 1017.8
20260506070658 14 313 0.0 0.0 0.00 0.00 0.00 72 1017.7
20260506070144 14 313 0.0 0.0 0.00 0.00 0.00 71 1017.7
20260506062134 14 313 0.0 9.7 0.00 0.00 0.00 70 1017.4
20260506061629 15 315 0.0 9.7 0.00 0.00 0.00 70 1017.4
20260506061401 15 309 0.0 0.0 0.00 0.00 0.00 70 1017.4
20260506060631 15 308 0.0 0.0 0.00 0.00 0.00 70 1017.4
20260506060112 15 308 0.0 1.6 0.00 0.00 0.00 70 1017.4